"startDT [UTC]","vpos","CH4 [ppm]","stdev(CH4) [ppm]","CO2 [ppm]","stdev(CO2) [ppm]","H2O [ppm]","stdev(H2O)","p_LGR [torr]","T_LGR [C]","mt1_LGR [us]","mt2_LGR [us]","T_ECpre [C]","T_EC1 [C]","T_EC2 [C]","p_inlet [hPa]","p_in [hPa]","p_out [hPa]","T_inlet [C]","RH_inlet [%]","dwpt_inlet [C]","T_vent [C]","RH_vent [%]","dwpt_vent [C]","flow_vent [l min-1]","flow_inlet [l min-1]","dwpt_sample [C]","T_room [C]"
2012-10-06 00:00:00,0.0,1.9266,0.0009,398.43,0.26,175.9,31.5,138.17,26.19,24.61,36.39,0.04,-272.75,-272.74,-39,557,-931,20.4,11.1,-11.0,20.7,11.2,-10.7,5.73,2.43,-25.0,25.8
2012-10-06 00:01:00,0.0,1.9266,0.0011,398.36,0.27,173.2,35.6,138.17,26.19,24.62,36.39,0.04,-272.75,-272.75,-39,557,-931,20.4,11.1,-11.0,20.7,11.1,-10.7,5.73,2.43,-25.0,25.8
2012-10-06 00:02:00,0.0,1.9264,0.0009,398.43,0.26,175.8,32.8,138.17,26.19,24.62,36.38,0.04,-272.74,-272.75,-39,557,-931,20.4,11.1,-11.0,20.7,11.2,-10.7,5.73,2.43,-25.0,25.8
2012-10-06 00:03:00,0.0,1.9261,0.0010,398.49,0.30,174.7,29.9,138.17,26.19,24.62,36.38,0.04,-272.75,-272.75,-39,557,-931,20.4,11.1,-10.9,20.7,11.2,-10.6,5.73,2.42,-25.0,25.8
2012-10-06 00:04:00,0.0,1.9259,0.0010,398.39,0.27,179.1,40.0,138.17,26.19,24.62,36.38,0.04,-272.74,-272.75,-39,557,-931,20.4,11.2,-10.9,20.7,11.2,-10.6,5.73,2.41,-25.0,25.8
2012-10-06 00:05:00,0.0,1.9253,0.0009,398.53,0.32,177.0,38.7,138.17,26.17,24.62,36.38,0.04,-272.75,-272.75,-39,557,-931,20.3,11.1,-10.9,20.7,11.2,-10.6,5.73,2.40,-25.0,25.8
2012-10-06 00:06:00,0.0,1.9254,0.0008,398.65,0.26,185.4,31.8,138.17,26.16,24.61,36.38,0.04,-272.75,-272.75,-39,557,-931,20.4,11.2,-10.9,20.7,11.2,-10.6,5.73,2.41,-25.0,25.8
2012-10-06 00:07:00,0.0,1.9249,0.0007,398.70,0.31,186.2,35.8,138.16,26.14,24.62,36.39,0.04,-272.74,-272.75,-39,557,-931,20.4,11.2,-10.9,20.7,11.2,-10.6,5.73,2.40,-25.0,25.8
2012-10-06 00:08:00,0.0,1.9246,0.0008,398.64,0.27,185.4,30.7,138.17,26.13,24.62,36.38,0.04,-272.75,-272.75,-39,557,-931,20.4,11.1,-11.0,20.7,11.1,-10.7,5.73,2.41,-25.0,25.8
2012-10-06 00:09:00,0.0,1.9245,0.0007,398.74,0.28,187.5,31.3,138.17,26.11,24.62,36.38,0.04,-272.75,-272.75,-39,557,-931,20.4,11.1,-10.9,20.6,11.2,-10.7,5.73,2.40,-25.0,25.8
2012-10-06 00:10:00,0.0,1.9243,0.0011,398.69,0.22,188.0,38.0,138.17,26.10,24.62,36.38,0.04,-272.75,-272.74,-39,557,-931,20.4,11.2,-10.8,20.7,11.3,-10.6,5.73,2.40,-25.0,25.8
2012-10-06 00:11:00,0.0,1.9246,0.0008,398.70,0.28,184.1,31.9,138.17,26.10,24.62,36.39,0.04,-272.75,-272.75,-39,557,-931,20.4,11.2,-10.8,20.7,11.3,-10.5,5.73,2.41,-25.0,25.8
2012-10-06 00:12:00,0.0,1.9249,0.0010,398.72,0.29,184.5,33.0,138.17,26.11,24.61,36.38,0.04,-272.75,-272.75,-39,557,-931,20.4,11.2,-10.8,20.7,11.3,-10.5,5.73,2.41,-24.9,25.8
2012-10-06 00:13:00,0.0,1.9249,0.0009,398.70,0.28,179.2,33.7,138.17,26.11,24.62,36.38,0.04,-272.75,-272.74,-39,557,-931,20.4,11.3,-10.8,20.7,11.3,-10.5,5.73,2.42,-25.0,25.8
2012-10-06 00:14:00,0.0,1.9247,0.0010,398.77,0.30,186.6,35.2,138.17,26.10,24.62,36.38,0.04,-272.74,-272.75,-39,557,-931,20.4,11.3,-10.7,20.7,11.4,-10.4,5.73,2.43,-25.0,25.8
2012-10-06 00:15:00,0.0,1.9249,0.0009,398.46,0.32,180.5,33.4,138.17,26.09,24.62,36.39,0.04,-272.74,-272.75,-39,557,-931,20.3,11.2,-10.8,20.6,11.3,-10.5,5.73,2.42,-25.0,25.8
2012-10-06 00:16:00,0.0,1.9243,0.0010,398.66,0.28,178.4,32.7,138.17,26.08,24.62,36.38,0.04,-272.75,-272.75,-39,557,-930,20.3,11.2,-10.8,20.7,11.3,-10.5,5.73,2.43,-25.0,25.8
2012-10-06 00:17:00,0.0,1.9242,0.0008,398.56,0.31,189.3,35.4,138.17,26.07,24.61,36.39,0.04,-272.75,-272.75,-39,557,-931,20.3,11.2,-10.9,20.7,11.3,-10.5,5.73,2.43,-25.0,25.8
2012-10-06 00:18:00,0.0,1.9242,0.0009,398.63,0.31,181.1,38.3,138.17,26.06,24.61,36.38,0.04,-272.75,-272.75,-39,557,-931,20.3,11.2,-10.9,20.6,11.3,-10.6,5.73,2.43,-25.0,25.8
2012-10-06 00:19:00,0.0,1.9244,0.0009,398.65,0.26,168.3,36.2,138.16,26.05,24.61,36.38,0.04,-272.75,-272.75,-39,557,-931,20.3,11.3,-10.8,20.6,11.4,-10.5,5.73,2.43,-25.0,25.8
2012-10-06 00:20:00,0.0,1.9247,0.0009,398.65,0.31,181.6,32.8,138.17,26.05,24.61,36.38,0.04,-272.74,-272.74,-39,557,-931,20.3,11.3,-10.8,20.6,11.4,-10.4,5.73,2.43,-25.0,25.8
2012-10-06 00:21:00,0.0,1.9247,0.0010,398.57,0.27,171.7,27.3,138.17,26.05,24.61,36.38,0.04,-272.74,-272.75,-39,557,-931,20.3,11.2,-10.9,20.7,11.3,-10.5,5.73,2.42,-25.0,25.8
2012-10-06 00:22:00,0.0,1.9252,0.0008,398.57,0.27,176.7,33.7,138.17,26.06,24.61,36.38,0.04,-272.75,-272.75,-39,557,-931,20.3,11.1,-11.0,20.6,11.2,-10.6,5.73,2.42,-25.0,25.8
2012-10-06 00:23:00,0.0,1.9250,0.0009,398.57,0.29,185.7,37.4,138.17,26.07,24.62,36.38,0.04,-272.75,-272.75,-39,557,-932,20.3,11.2,-10.9,20.7,11.2,-10.6,5.73,2.41,-25.0,25.8
2012-10-06 00:24:00,0.0,1.9253,0.0009,398.54,0.26,183.7,32.6,138.17,26.07,24.62,36.38,0.04,-272.75,-272.75,-39,557,-932,20.3,11.2,-10.9,20.6,11.3,-10.6,5.73,2.40,-25.0,25.8
2012-10-06 00:25:00,0.0,1.9257,0.0010,398.46,0.24,181.9,37.9,138.17,26.08,24.61,36.39,0.04,-272.75,-272.75,-39,557,-932,20.3,11.2,-10.9,20.6,11.3,-10.5,5.73,2.40,-25.0,25.8
2012-10-06 00:26:00,0.0,1.9253,0.0009,398.46,0.27,178.9,32.5,138.17,26.08,24.62,36.38,0.04,-272.75,-272.75,-39,557,-931,20.3,11.2,-10.9,20.7,11.3,-10.5,5.73,2.41,-25.0,25.8
2012-10-06 00:27:00,0.0,1.9256,0.0009,398.29,0.27,177.6,34.9,138.17,26.08,24.62,36.39,0.04,-272.75,-272.75,-39,557,-931,20.3,11.2,-10.9,20.6,11.3,-10.6,5.73,2.40,-25.0,25.8
2012-10-06 00:28:00,0.0,1.9257,0.0009,398.45,0.33,185.8,37.9,138.17,26.08,24.62,36.38,0.04,-272.74,-272.75,-39,557,-931,20.3,11.2,-10.9,20.6,11.2,-10.6,5.73,2.40,-25.0,25.9
2012-10-06 00:29:00,0.0,1.9256,0.0009,398.48,0.28,182.1,28.3,138.17,26.09,24.62,36.38,0.04,-272.75,-272.75,-39,557,-931,20.3,11.2,-10.9,20.6,11.3,-10.6,5.73,2.41,-24.9,25.8
2012-10-06 00:30:00,0.0,1.9261,0.0011,398.40,0.23,172.7,35.8,138.17,26.09,24.61,36.39,0.04,-272.75,-272.75,-39,557,-931,20.3,11.3,-10.9,20.6,11.3,-10.5,5.73,2.41,-25.0,25.8
2012-10-06 00:31:00,0.0,1.9264,0.0009,398.53,0.26,175.3,31.6,138.17,26.09,24.61,36.38,0.04,-272.74,-272.75,-39,557,-931,20.3,11.3,-10.8,20.6,11.4,-10.5,5.73,2.41,-25.0,25.8
2012-10-06 00:32:00,0.0,1.9263,0.0009,398.41,0.31,170.5,35.2,138.17,26.09,24.62,36.39,0.04,-272.74,-272.75,-39,557,-931,20.3,11.4,-10.7,20.6,11.4,-10.4,5.73,2.42,-25.0,25.8
2012-10-06 00:33:00,0.0,1.9269,0.0009,398.40,0.26,171.0,28.8,138.17,26.09,24.61,36.38,0.04,-272.75,-272.75,-39,557,-931,20.3,11.4,-10.7,20.6,11.4,-10.4,5.73,2.42,-25.0,25.8
2012-10-06 00:34:00,0.0,1.9265,0.0011,398.39,0.27,179.5,32.2,138.17,26.09,24.61,36.39,0.04,-272.75,-272.75,-39,557,-931,20.3,11.4,-10.8,20.6,11.4,-10.4,5.73,2.42,-24.9,25.8
2012-10-06 00:35:00,0.0,1.9267,0.0010,398.44,0.28,174.1,32.1,138.17,26.08,24.61,36.39,0.04,-272.75,-272.75,-39,557,-931,20.3,11.4,-10.7,20.6,11.5,-10.4,5.73,2.43,-25.0,25.8
2012-10-06 00:36:00,0.0,1.9267,0.0008,398.36,0.29,173.6,31.3,138.17,26.08,24.61,36.38,0.04,-272.74,-272.75,-39,557,-931,20.3,11.4,-10.7,20.6,11.4,-10.4,5.73,2.43,-25.0,25.8
2012-10-06 00:37:00,0.0,1.9266,0.0009,398.40,0.29,178.9,36.5,138.17,26.08,24.62,36.38,0.04,-272.74,-272.75,-39,557,-931,20.3,11.3,-10.8,20.6,11.4,-10.5,5.73,2.43,-24.9,25.8
2012-10-06 00:38:00,0.0,1.9268,0.0008,398.52,0.28,182.0,30.1,138.17,26.08,24.62,36.38,0.04,-272.75,-272.75,-39,557,-931,20.3,11.4,-10.8,20.6,11.4,-10.4,5.73,2.43,-24.9,25.8
2012-10-06 00:39:00,0.0,1.9276,0.0010,398.73,0.31,181.1,29.6,138.17,26.08,24.61,36.38,0.04,-272.75,-272.75,-39,557,-931,20.3,11.4,-10.7,20.6,11.5,-10.4,5.73,2.43,-24.9,25.8
2012-10-06 00:40:00,0.0,1.9270,0.0009,398.75,0.29,180.7,30.4,138.17,26.08,24.61,36.38,0.04,-272.75,-272.75,-39,557,-931,20.3,11.3,-10.8,20.6,11.4,-10.4,5.73,2.43,-24.9,25.8
2012-10-06 00:41:00,0.0,1.9276,0.0008,398.94,0.27,165.2,30.2,138.17,26.07,24.61,36.38,0.04,-272.75,-272.75,-39,557,-931,20.3,11.3,-10.8,20.6,11.4,-10.5,5.73,2.42,-24.9,25.8
2012-10-06 00:42:00,0.0,1.9271,0.0008,399.04,0.24,180.1,31.6,138.17,26.07,24.62,36.37,0.04,-272.75,-272.75,-39,557,-931,20.3,11.3,-10.8,20.6,11.3,-10.5,5.73,2.43,-24.9,25.8
2012-10-06 00:43:00,0.0,1.9273,0.0010,399.03,0.28,180.6,36.1,138.17,26.07,24.62,36.38,0.04,-272.75,-272.75,-39,557,-931,20.3,11.2,-10.9,20.6,11.3,-10.6,5.73,2.42,-24.9,25.8
2012-10-06 00:44:00,0.0,1.9275,0.0009,399.10,0.30,174.8,37.6,138.17,26.08,24.62,36.38,0.04,-272.75,-272.74,-39,557,-931,20.3,11.3,-10.8,20.6,11.3,-10.5,5.73,2.42,-24.9,25.8
2012-10-06 00:45:00,0.0,1.9268,0.0008,398.87,0.29,182.8,39.1,138.17,26.08,24.62,36.39,0.04,-272.75,-272.75,-39,557,-931,20.3,11.3,-10.8,20.6,11.4,-10.5,5.73,2.42,-24.9,25.8
2012-10-06 00:46:00,0.0,1.9273,0.0010,399.01,0.23,182.6,35.3,138.17,26.08,24.62,36.38,0.04,-272.75,-272.75,-39,557,-931,20.3,11.3,-10.8,20.6,11.4,-10.5,5.73,2.41,-24.9,25.8
2012-10-06 00:47:00,0.0,1.9267,0.0010,398.86,0.28,170.2,33.9,138.17,26.08,24.62,36.38,0.04,-272.75,-272.75,-39,557,-931,20.3,11.3,-10.8,20.6,11.3,-10.5,5.73,2.42,-24.9,25.8
2012-10-06 00:48:00,0.0,1.9260,0.0008,398.75,0.28,185.7,35.3,138.17,26.06,24.62,36.38,0.04,-272.74,-272.75,-39,557,-931,20.3,11.3,-10.8,20.6,11.4,-10.5,5.73,2.41,-24.9,25.8
2012-10-06 00:49:00,0.0,1.9257,0.0009,398.59,0.26,183.4,36.9,138.17,26.04,24.62,36.39,0.04,-272.75,-272.75,-39,557,-931,20.3,11.3,-10.8,20.6,11.4,-10.5,5.73,2.41,-24.9,25.8
2012-10-06 00:50:00,0.0,1.9259,0.0009,398.60,0.24,193.5,40.1,138.17,26.03,24.61,36.39,0.04,-272.75,-272.75,-39,557,-931,20.3,11.4,-10.7,20.6,11.4,-10.4,5.73,2.41,-24.9,25.8
2012-10-06 00:51:00,0.0,1.9260,0.0009,398.73,0.31,182.7,33.6,138.17,26.02,24.61,36.38,0.04,-272.74,-272.74,-39,557,-931,20.3,11.4,-10.7,20.6,11.4,-10.4,5.73,2.40,-24.9,25.8
2012-10-06 00:52:00,0.0,1.9262,0.0009,398.70,0.30,174.6,33.1,138.17,26.02,24.62,36.39,0.04,-272.75,-272.75,-39,557,-930,20.3,11.4,-10.7,20.6,11.4,-10.4,5.73,2.40,-24.9,25.8
2012-10-06 00:53:00,0.0,1.9269,0.0009,398.62,0.32,176.2,39.4,138.17,26.03,24.61,36.39,0.04,-272.75,-272.75,-39,557,-930,20.3,11.4,-10.7,20.6,11.4,-10.4,5.73,2.40,-24.9,25.8
2012-10-06 00:54:00,0.0,1.9266,0.0010,398.61,0.27,173.4,28.9,138.17,26.03,24.62,36.39,0.04,-272.75,-272.74,-39,557,-930,20.3,11.4,-10.7,20.6,11.4,-10.4,5.73,2.41,-24.9,25.8
2012-10-06 00:55:00,0.0,1.9271,0.0009,398.88,0.32,183.7,37.9,138.17,26.03,24.61,36.38,0.04,-272.75,-272.74,-39,557,-930,20.3,11.3,-10.8,20.6,11.4,-10.5,5.73,2.41,-24.9,25.8
2012-10-06 00:56:00,0.0,1.9274,0.0011,398.90,0.30,173.2,34.6,138.17,26.03,24.61,36.38,0.04,-272.74,-272.75,-39,557,-931,20.3,11.3,-10.7,20.6,11.4,-10.4,5.73,2.42,-24.9,25.8
2012-10-06 00:57:00,0.0,1.9271,0.0009,398.91,0.26,183.5,43.1,138.17,26.01,24.61,36.38,0.04,-272.75,-272.75,-39,557,-931,20.3,11.4,-10.7,20.6,11.4,-10.4,5.73,2.42,-24.9,25.9
2012-10-06 00:58:00,0.0,1.9270,0.0010,398.93,0.33,186.3,36.6,138.17,26.01,24.61,36.37,0.04,-272.75,-272.75,-39,557,-931,20.3,11.3,-10.8,20.6,11.3,-10.5,5.73,2.42,-24.9,25.9
2012-10-06 00:59:00,0.0,1.9270,0.0008,398.68,0.26,172.7,35.6,138.17,26.01,24.62,36.39,0.04,-272.75,-272.75,-39,557,-931,20.3,11.3,-10.8,20.6,11.3,-10.5,5.73,2.42,-24.9,25.8
2012-10-06 01:00:00,0.0,1.9268,0.0010,398.87,0.28,176.0,34.9,138.17,26.01,24.62,36.38,0.04,-272.75,-272.75,-39,557,-931,20.3,11.3,-10.8,20.6,11.3,-10.5,5.73,2.43,-24.9,25.8
2012-10-06 01:01:00,0.0,1.9278,0.0012,398.48,0.28,169.8,36.2,138.17,26.02,24.61,36.39,0.04,-272.74,-272.75,-39,557,-931,20.3,11.2,-10.9,20.6,11.3,-10.6,5.73,2.43,-24.9,25.8
2012-10-06 01:02:00,0.0,1.9276,0.0007,398.76,0.30,177.2,33.0,138.17,26.02,24.61,36.38,0.04,-272.75,-272.75,-39,557,-930,20.3,11.2,-10.9,20.6,11.3,-10.6,5.73,2.43,-24.9,25.8
2012-10-06 01:03:00,0.0,1.9281,0.0009,398.74,0.27,173.7,35.5,138.17,26.03,24.61,36.38,0.04,-272.75,-272.75,-39,557,-930,20.3,11.3,-10.8,20.6,11.4,-10.5,5.73,2.43,-24.9,25.9
2012-10-06 01:04:00,0.0,1.9278,0.0009,398.63,0.31,183.5,32.7,138.17,26.02,24.62,36.38,0.04,-272.74,-272.75,-39,557,-930,20.3,11.4,-10.7,20.6,11.5,-10.4,5.73,2.43,-24.9,25.8
2012-10-06 01:05:00,0.0,1.9275,0.0009,398.39,0.36,177.8,34.2,138.17,26.01,24.62,36.39,0.04,-272.75,-272.74,-39,557,-930,20.3,11.4,-10.7,20.6,11.5,-10.4,5.73,2.43,-24.9,25.8
2012-10-06 01:06:00,0.0,1.9272,0.0008,398.30,0.29,175.0,37.4,138.17,26.00,24.61,36.38,0.04,-272.75,-272.75,-39,557,-930,20.3,11.3,-10.7,20.6,11.4,-10.4,5.73,2.42,-24.9,25.8
2012-10-06 01:07:00,0.0,1.9274,0.0009,398.36,0.31,178.6,35.4,138.17,25.99,24.61,36.38,0.04,-272.75,-272.74,-39,557,-930,20.3,11.3,-10.8,20.6,11.4,-10.5,5.73,2.42,-24.9,25.8
2012-10-06 01:08:00,0.0,1.9272,0.0009,398.19,0.29,177.9,35.5,138.17,25.99,24.62,36.38,0.04,-272.75,-272.75,-39,557,-930,20.3,11.4,-10.7,20.6,11.4,-10.4,5.73,2.41,-24.9,25.9
2012-10-06 01:09:00,0.0,1.9276,0.0009,398.31,0.25,177.7,34.1,138.17,25.99,24.62,36.38,0.04,-272.75,-272.75,-39,557,-930,20.3,11.4,-10.7,20.6,11.5,-10.3,5.73,2.41,-24.9,25.9
2012-10-06 01:10:00,0.0,1.9278,0.0010,398.21,0.31,180.8,27.0,138.17,25.99,24.61,36.38,0.04,-272.75,-272.75,-39,557,-930,20.3,11.5,-10.7,20.6,11.5,-10.3,5.73,2.40,-24.9,25.8
2012-10-06 01:11:00,0.0,1.9274,0.0010,398.19,0.27,186.0,34.4,138.17,26.00,24.62,36.38,0.04,-272.74,-272.75,-39,557,-930,20.3,11.4,-10.7,20.6,11.5,-10.4,5.73,2.40,-24.9,25.8
2012-10-06 01:12:00,0.0,1.9280,0.0010,398.23,0.29,179.8,30.6,138.17,26.00,24.61,36.39,0.04,-272.75,-272.74,-39,557,-930,20.3,11.5,-10.6,20.6,11.5,-10.3,5.73,2.41,-24.9,25.8
2012-10-06 01:13:00,0.0,1.9287,0.0009,398.47,0.26,193.8,34.4,138.17,26.00,24.61,36.38,0.04,-272.75,-272.75,-39,557,-930,20.3,11.5,-10.6,20.6,11.6,-10.2,5.73,2.41,-24.9,25.8
2012-10-06 01:14:00,0.0,1.9281,0.0009,398.36,0.26,182.8,29.4,138.17,26.00,24.62,36.39,0.04,-272.75,-272.75,-39,557,-930,20.3,11.7,-10.4,20.6,11.7,-10.1,5.73,2.40,-24.9,25.8
2012-10-06 01:15:00,0.0,1.9283,0.0009,398.78,0.24,171.3,37.3,138.17,26.00,24.62,36.38,0.04,-272.74,-272.75,-39,557,-930,20.3,11.7,-10.4,20.6,11.8,-10.1,5.73,2.41,-24.9,25.8
2012-10-06 01:16:00,0.0,1.9292,0.0010,399.00,0.30,175.5,34.8,138.17,26.00,24.61,36.38,0.04,-272.75,-272.75,-39,557,-931,20.3,11.6,-10.5,20.6,11.6,-10.2,5.73,2.41,-24.9,25.8
2012-10-06 01:17:00,0.0,1.9291,0.0009,399.06,0.21,174.3,33.9,138.17,26.00,24.61,36.38,0.04,-272.75,-272.75,-39,557,-931,20.3,11.5,-10.6,20.6,11.5,-10.3,5.73,2.41,-24.9,25.8
2012-10-06 01:18:00,0.0,1.9290,0.0010,399.20,0.27,176.3,42.4,138.17,26.00,24.61,36.38,0.04,-272.74,-272.74,-39,557,-931,20.3,11.5,-10.6,20.6,11.5,-10.3,5.73,2.42,-24.9,25.8
2012-10-06 01:19:00,0.0,1.9297,0.0009,399.29,0.24,173.0,34.9,138.17,26.01,24.62,36.38,0.04,-272.75,-272.75,-39,557,-931,20.3,11.5,-10.6,20.6,11.5,-10.3,5.73,2.42,-24.9,25.8
2012-10-06 01:20:00,0.0,1.9295,0.0009,399.32,0.31,177.5,40.2,138.17,26.00,24.62,36.38,0.04,-272.75,-272.75,-39,557,-931,20.3,11.4,-10.7,20.6,11.5,-10.3,5.73,2.42,-24.9,25.8
2012-10-06 01:21:00,0.0,1.9288,0.0009,399.22,0.29,177.6,35.7,138.17,25.99,24.62,36.38,0.04,-272.75,-272.74,-39,557,-931,20.3,11.4,-10.7,20.6,11.5,-10.4,5.73,2.42,-24.9,25.8
2012-10-06 01:22:00,0.0,1.9283,0.0010,399.26,0.29,183.7,33.3,138.17,25.97,24.62,36.38,0.04,-272.74,-272.75,-39,557,-931,20.3,11.3,-10.8,20.6,11.4,-10.5,5.73,2.43,-24.9,25.8
2012-10-06 01:23:00,0.0,1.9288,0.0010,399.09,0.29,193.0,34.1,138.17,25.96,24.62,36.39,0.04,-272.75,-272.75,-39,557,-931,20.3,11.3,-10.8,20.6,11.4,-10.5,5.73,2.42,-24.9,25.8
2012-10-06 01:24:00,0.0,1.9287,0.0008,399.00,0.31,168.3,29.5,138.17,25.95,24.61,36.38,0.04,-272.74,-272.75,-39,557,-931,20.3,11.3,-10.8,20.6,11.4,-10.5,5.73,2.43,-24.9,25.8
2012-10-06 01:25:00,0.0,1.9272,0.0010,399.10,0.33,184.2,35.4,138.17,25.94,24.62,36.38,0.04,-272.75,-272.74,-39,557,-931,20.3,11.3,-10.9,20.6,11.3,-10.5,5.73,2.43,-24.9,25.8
2012-10-06 01:26:00,0.0,1.9285,0.0011,399.02,0.28,179.1,38.6,138.17,25.92,24.61,36.38,0.04,-272.75,-272.75,-39,557,-931,20.3,11.3,-10.8,20.6,11.3,-10.5,5.73,2.42,-24.9,25.8
2012-10-06 01:27:00,0.0,1.9288,0.0011,398.97,0.32,182.9,33.5,138.17,25.91,24.61,36.38,0.04,-272.75,-272.75,-39,557,-931,20.3,11.4,-10.7,20.6,11.4,-10.4,5.73,2.43,-24.9,25.8
2012-10-06 01:28:00,0.0,1.9279,0.0010,398.87,0.30,179.4,34.3,138.17,25.91,24.61,36.38,0.04,-272.74,-272.75,-39,557,-931,20.3,11.3,-10.8,20.6,11.4,-10.5,5.73,2.43,-24.9,25.8
2012-10-06 01:29:00,0.0,1.9270,0.0009,398.76,0.30,179.1,31.9,138.17,25.90,24.61,36.39,0.04,-272.74,-272.75,-39,557,-931,20.3,11.3,-10.8,20.6,11.3,-10.5,5.73,2.43,-24.9,25.8
2012-10-06 01:30:00,0.0,1.9272,0.0011,398.82,0.33,179.3,34.7,138.17,25.89,24.61,36.38,0.04,-272.75,-272.75,-39,557,-931,20.3,11.3,-10.8,20.6,11.3,-10.5,5.73,2.42,-24.9,25.8
2012-10-06 01:31:00,0.0,1.9276,0.0012,398.82,0.31,185.8,36.3,138.17,25.90,24.62,36.38,0.04,-272.74,-272.75,-39,557,-931,20.3,11.3,-10.8,20.6,11.4,-10.5,5.73,2.42,-24.9,25.8
2012-10-06 01:32:00,0.0,1.9271,0.0008,398.64,0.25,180.7,32.0,138.17,25.91,24.62,36.38,0.04,-272.75,-272.75,-39,557,-931,20.3,11.4,-10.7,20.6,11.5,-10.4,5.73,2.42,-24.9,25.8
2012-10-06 01:33:00,0.0,1.9269,0.0008,398.70,0.29,181.9,33.0,138.17,25.92,24.62,36.38,0.04,-272.75,-272.75,-39,557,-931,20.3,11.3,-10.8,20.6,11.4,-10.5,5.73,2.41,-24.9,25.8
2012-10-06 01:34:00,0.0,1.9273,0.0008,398.70,0.35,181.1,37.3,138.17,25.93,24.61,36.38,0.04,-272.74,-272.75,-39,557,-931,20.3,11.3,-10.8,20.6,11.4,-10.5,5.73,2.41,-24.9,25.7
2012-10-06 01:35:00,0.0,1.9271,0.0009,398.62,0.26,183.3,30.2,138.17,25.94,24.61,36.38,0.04,-272.75,-272.74,-39,557,-931,20.3,11.3,-10.8,20.6,11.4,-10.5,5.73,2.41,-24.9,25.8
2012-10-06 01:36:00,0.0,1.9271,0.0008,398.54,0.24,178.5,30.0,138.17,25.93,24.61,36.38,0.04,-272.75,-272.74,-39,557,-930,20.3,11.3,-10.8,20.6,11.4,-10.5,5.73,2.40,-24.9,25.8
2012-10-06 01:37:00,0.0,1.9260,0.0009,398.45,0.24,172.3,31.3,138.17,25.93,24.62,36.38,0.04,-272.75,-272.75,-39,557,-930,20.3,11.3,-10.8,20.6,11.4,-10.5,5.73,2.41,-24.9,25.8
2012-10-06 01:38:00,0.0,1.9261,0.0008,398.50,0.24,179.1,31.2,138.17,25.93,24.62,36.38,0.04,-272.75,-272.75,-39,557,-930,20.3,11.3,-10.8,20.6,11.4,-10.5,5.73,2.40,-24.9,25.8
2012-10-06 01:39:00,0.0,1.9268,0.0010,398.53,0.26,182.2,36.1,138.17,25.93,24.62,36.38,0.04,-272.74,-272.75,-39,557,-930,20.3,11.4,-10.7,20.6,11.4,-10.4,5.73,2.41,-24.9,25.8
2012-10-06 01:40:00,0.0,1.9267,0.0009,398.60,0.30,181.9,30.3,138.17,25.94,24.62,36.38,0.04,-272.74,-272.75,-39,557,-930,20.3,11.5,-10.6,20.6,11.5,-10.3,5.73,2.41,-24.9,25.8
2012-10-06 01:41:00,0.0,1.9269,0.0010,398.48,0.27,167.8,36.1,138.17,25.95,24.61,36.38,0.04,-272.75,-272.75,-39,557,-930,20.3,11.5,-10.6,20.6,11.5,-10.3,5.73,2.41,-24.9,25.8
2012-10-06 01:42:00,0.0,1.9270,0.0010,398.57,0.26,178.6,40.2,138.17,25.95,24.62,36.38,0.04,-272.75,-272.75,-39,557,-931,20.3,11.5,-10.5,20.6,11.6,-10.2,5.73,2.41,-24.9,25.8
2012-10-06 01:43:00,0.0,1.9267,0.0009,398.39,0.24,176.8,36.0,138.17,25.95,24.62,36.38,0.04,-272.75,-272.75,-39,557,-931,20.3,11.6,-10.5,20.6,11.6,-10.2,5.73,2.42,-24.9,25.8
2012-10-06 01:44:00,0.0,1.9273,0.0008,398.49,0.28,175.8,35.6,138.17,25.94,24.61,36.38,0.04,-272.75,-272.75,-39,557,-931,20.3,11.7,-10.4,20.6,11.7,-10.1,5.73,2.41,-24.9,25.8
2012-10-06 01:45:00,0.0,1.9266,0.0009,398.37,0.33,172.4,33.4,138.17,25.93,24.61,36.38,0.04,-272.75,-272.75,-39,557,-931,20.3,11.7,-10.3,20.6,11.8,-10.0,5.73,2.42,-24.9,25.8
2012-10-06 01:46:00,0.0,1.9256,0.0011,398.10,0.24,184.0,31.6,138.17,25.91,24.62,36.38,0.04,-272.75,-272.74,-39,557,-931,20.3,11.7,-10.4,20.6,11.7,-10.1,5.73,2.42,-24.9,25.8
2012-10-06 01:47:00,0.0,1.9254,0.0009,397.84,0.24,184.8,33.3,138.17,25.90,24.61,36.38,0.04,-272.75,-272.75,-39,557,-931,20.3,11.5,-10.5,20.6,11.6,-10.2,5.73,2.43,-24.9,25.7
2012-10-06 01:48:00,0.0,1.9250,0.0009,397.87,0.22,177.3,31.0,138.17,25.89,24.62,36.37,0.04,-272.75,-272.75,-39,557,-931,20.3,11.5,-10.5,20.6,11.6,-10.2,5.73,2.43,-24.9,25.7
2012-10-06 01:49:00,0.0,1.9242,0.0009,397.62,0.31,179.9,34.3,138.17,25.88,24.62,36.38,0.04,-272.75,-272.75,-39,557,-931,20.3,11.4,-10.7,20.6,11.5,-10.4,5.73,2.43,-24.9,25.7
2012-10-06 01:50:00,0.0,1.9244,0.0008,397.85,0.32,181.1,34.3,138.17,25.87,24.62,36.37,0.04,-272.75,-272.74,-39,557,-931,20.3,11.3,-10.8,20.6,11.3,-10.5,5.73,2.42,-24.9,25.7
2012-10-06 01:51:00,0.0,1.9243,0.0009,397.66,0.29,182.4,34.4,138.17,25.87,24.62,36.39,0.04,-272.75,-272.75,-39,557,-931,20.3,11.3,-10.8,20.6,11.3,-10.5,5.73,2.43,-24.9,25.7
2012-10-06 01:52:00,0.0,1.9241,0.0011,397.63,0.29,173.1,35.6,138.17,25.87,24.61,36.38,0.04,-272.74,-272.74,-39,557,-931,20.3,11.2,-10.8,20.6,11.3,-10.6,5.73,2.43,-24.9,25.7
2012-10-06 01:53:00,0.0,1.9245,0.0008,397.77,0.29,163.5,34.0,138.17,25.87,24.61,36.38,0.04,-272.75,-272.75,-39,557,-931,20.3,11.2,-10.9,20.6,11.3,-10.6,5.73,2.42,-24.9,25.8
2012-10-06 01:54:00,0.0,1.9251,0.0009,397.80,0.26,180.5,32.5,138.17,25.88,24.61,36.37,0.04,-272.74,-272.75,-39,557,-931,20.3,11.2,-10.9,20.6,11.3,-10.6,5.73,2.43,-24.9,25.8
2012-10-06 01:55:00,0.0,1.9250,0.0008,397.70,0.29,177.8,29.7,138.17,25.89,24.62,36.37,0.04,-272.74,-272.74,-39,557,-931,20.3,11.3,-10.8,20.6,11.4,-10.5,5.73,2.43,-24.8,25.8
2012-10-06 01:56:00,0.0,1.9248,0.0009,397.63,0.32,182.6,35.3,138.17,25.90,24.62,36.37,0.04,-272.75,-272.75,-39,557,-931,20.3,11.3,-10.7,20.6,11.4,-10.4,5.73,2.42,-24.9,25.7
2012-10-06 01:57:00,0.0,1.9244,0.0011,397.59,0.29,175.4,37.9,138.17,25.89,24.61,36.38,0.04,-272.75,-272.75,-39,557,-931,20.3,11.4,-10.7,20.6,11.5,-10.4,5.73,2.42,-24.9,25.7
2012-10-06 01:58:00,0.0,1.9246,0.0009,397.56,0.34,181.3,31.0,138.17,25.88,24.61,36.38,0.04,-272.75,-272.74,-39,557,-931,20.3,11.3,-10.7,20.6,11.4,-10.4,5.73,2.42,-24.9,25.7
2012-10-06 01:59:00,0.0,1.9250,0.0008,397.63,0.23,179.8,37.4,138.17,25.89,24.61,36.38,0.04,-272.75,-272.75,-39,557,-931,20.3,11.4,-10.6,20.6,11.5,-10.3,5.73,2.41,-24.9,25.7
2012-10-06 02:00:00,0.0,1.9255,0.0010,397.67,0.33,176.7,29.8,138.17,25.90,24.61,36.37,0.04,-272.75,-272.75,-39,557,-931,20.3,11.4,-10.6,20.6,11.5,-10.3,5.73,2.41,-24.9,25.7
2012-10-06 02:01:00,0.0,1.9251,0.0010,397.66,0.29,177.0,31.7,138.17,25.90,24.62,36.38,0.04,-272.75,-272.75,-39,557,-930,20.4,11.4,-10.6,20.6,11.5,-10.3,5.73,2.41,-24.9,25.8
2012-10-06 02:02:00,0.0,1.9253,0.0008,397.68,0.26,174.5,38.0,138.17,25.91,24.61,36.38,0.04,-272.75,-272.74,-39,557,-930,20.3,11.4,-10.7,20.6,11.4,-10.4,5.73,2.41,-24.9,25.8
2012-10-06 02:03:00,0.0,1.9261,0.0008,397.83,0.25,171.8,31.4,138.17,25.91,24.61,36.38,0.04,-272.75,-272.75,-39,557,-930,20.4,11.4,-10.7,20.6,11.4,-10.4,5.73,2.41,-24.9,25.8
2012-10-06 02:04:00,0.0,1.9257,0.0009,397.84,0.29,180.2,35.6,138.17,25.92,24.62,36.38,0.04,-272.74,-272.75,-39,557,-930,20.4,11.5,-10.6,20.6,11.5,-10.3,5.73,2.41,-24.9,25.8
2012-10-06 02:05:00,0.0,1.9255,0.0008,397.72,0.29,176.9,39.7,138.17,25.91,24.62,36.38,0.04,-272.75,-272.75,-39,557,-930,20.4,11.4,-10.6,20.7,11.5,-10.3,5.73,2.41,-24.9,25.8
2012-10-06 02:06:00,0.0,1.9261,0.0010,397.83,0.31,179.8,37.0,138.17,25.92,24.61,36.38,0.04,-272.75,-272.75,-39,557,-930,20.3,11.4,-10.7,20.6,11.5,-10.3,5.73,2.41,-24.9,25.8
2012-10-06 02:07:00,0.0,1.9267,0.0011,397.97,0.30,175.4,34.0,138.17,25.92,24.61,36.38,0.04,-272.75,-272.75,-39,557,-930,20.3,11.3,-10.7,20.6,11.4,-10.5,5.73,2.40,-24.9,25.8
2012-10-06 02:08:00,0.0,1.9266,0.0007,397.93,0.27,180.1,32.8,138.17,25.93,24.62,36.38,0.04,-272.74,-272.75,-39,557,-930,20.3,11.4,-10.7,20.6,11.5,-10.4,5.73,2.40,-24.9,25.8
2012-10-06 02:09:00,0.0,1.9264,0.0008,398.07,0.25,172.1,42.2,138.17,25.93,24.62,36.38,0.04,-272.74,-272.75,-39,557,-930,20.3,11.4,-10.7,20.6,11.5,-10.3,5.73,2.41,-24.9,25.8
2012-10-06 02:10:00,0.0,1.9265,0.0009,398.00,0.27,171.4,32.2,138.17,25.92,24.62,36.39,0.04,-272.75,-272.75,-39,557,-930,20.3,11.4,-10.7,20.6,11.5,-10.4,5.73,2.41,-24.9,25.8
2012-10-06 02:11:00,0.0,1.9266,0.0008,398.05,0.27,171.4,30.7,138.17,25.92,24.61,36.38,0.04,-272.75,-272.75,-39,557,-930,20.3,11.4,-10.6,20.6,11.5,-10.3,5.73,2.42,-24.9,25.8
2012-10-06 02:12:00,0.0,1.9263,0.0008,398.12,0.31,180.3,29.2,138.17,25.92,24.62,36.38,0.04,-272.75,-272.75,-39,557,-930,20.3,11.4,-10.7,20.6,11.5,-10.4,5.73,2.42,-24.9,25.8
2012-10-06 02:13:00,0.0,1.9264,0.0009,398.03,0.26,176.9,42.6,138.17,25.93,24.62,36.39,0.04,-272.75,-272.75,-39,557,-930,20.3,11.5,-10.5,20.6,11.6,-10.2,5.73,2.42,-24.9,25.8
2012-10-06 02:14:00,0.0,1.9260,0.0009,398.10,0.24,172.5,34.2,138.17,25.93,24.61,36.38,0.04,-272.74,-272.75,-39,557,-931,20.3,11.4,-10.6,20.6,11.5,-10.4,5.73,2.41,-24.9,25.8
2012-10-06 02:15:00,0.0,1.9255,0.0007,398.16,0.30,176.7,35.0,138.17,25.93,24.62,36.38,0.04,-272.74,-272.75,-39,557,-931,20.3,11.4,-10.7,20.6,11.4,-10.4,5.73,2.42,-24.9,25.8